Погода в Зюзино

Россия / Удмуртская Республика     57°28′21″N   54°01′51″E
темп.,
°C
ветер,
м/с
пор.,
м/с
влажн.,
%
обл.,
%
осадки,
мм/ч
давл.,
гПа
погр.,
м
10 мая, пн
пн1001:00+13юв33635 0.0 101834
04:00+12юв33695 0.0 101938
07:00+15ююв366417 0.0 1020174
10:00+20ююв454956 0.0 1021559
13:00+23ююв3335100 0.0 10212348
16:00+23ю233231 0.0 10222532
19:00+20з015290 0.0 102222
22:00+16с4106799 0.0 1024266
11 мая, вт
вт1101:00+14ссв3779100 0.0 1025204
04:00+14всв3678100 0.0 1026153
07:00+16ссв357549 0.0 1027263
10:00+20св22575 0.0 1027755
13:00+23ссз124447 0.0 10272028
16:00+20ссз115794 0.0 102736
19:00+19в0167100 0.1 102811
22:00+15св348076 0.1 102960
12 мая, ср
ср1201:00+13св338499 0.0 103048
04:00+12св228951 0.0 103025
07:00+15св34745 0.0 1031238
10:00+18св22575 0.0 1030787
13:00+21всв22425 0.0 10301349
16:00+22всв12395 0.0 10291432
19:00+20вюв225051 0.0 102921
22:00+16всв115311 0.0 102911
13 мая, чт
чт1301:00+15в11595 0.0 103011
04:00+13в116256 0.0 103010
07:00+17вюв11555 0.0 1030109
10:00+21юв224317 0.0 1030745
13:00+24ююв223928 0.0 10291257
16:00+24ю22371 0.0 10281500
19:00+22юв11490 0.0 102711
22:00+18ю22575 0.0 102712
14 мая, пт
пт1401:00+16ююз22665 0.0 102716
04:00+15юз22655 0.0 102713
07:00+18юз24615 0.0 1027159
10:00+23юз34480 0.0 1027774
13:00+26юз45392 0.0 10252429
16:00+26юз563463 0.0 10242506
19:00+22ююз355696 0.0 102394
22:00+18з116425 0.0 102311